CDT,Max TemperatureF,Mean TemperatureF,Min TemperatureF,Max Dew PointF,MeanDew PointF,Min DewpointF,Max Humidity, Mean Humidity, Min Humidity, Max Sea Level PressureIn, Mean Sea Level PressureIn, Min Sea Level PressureIn, Max VisibilityMiles, Mean VisibilityMiles, Min VisibilityMiles, Max Wind SpeedMPH, Mean Wind SpeedMPH, Max Gust SpeedMPH,PrecipitationIn, CloudCover, Events, WindDirDegrees
2013-9-1,89,76,62,68,60,50,78,56,29,30.06,29.95,29.82,10,10,10,22,9,32,0.00,1,,17
2013-9-2,87,71,55,57,53,48,82,58,31,30.13,30.07,30.02,10,10,10,12,4,16,0.00,0,,67
2013-9-3,91,73,55,61,56,50,82,56,29,30.11,30.06,30.01,10,10,10,14,6,20,0.00,0,,162
2013-9-4,93,78,62,59,56,55,77,51,29,30.14,30.10,30.06,10,10,10,18,10,25,0.00,0,,154
2013-9-5,96,79,62,64,60,55,83,55,27,30.16,30.11,30.06,10,10,9,16,9,24,0.00,0,,155
2013-9-6,100,83,66,63,61,54,83,52,21,30.11,30.04,29.95,10,10,7,20,11,23,0.00,0,,174
2013-9-7,104,85,66,63,60,55,83,48,20,29.99,29.95,29.90,10,10,9,17,9,22,0.00,0,,190
2013-9-8,102,86,69,61,59,55,73,45,22,29.94,29.90,29.83,10,10,10,21,10,25,0.00,0,,194
2013-9-9,96,82,69,61,56,52,60,41,23,29.92,29.89,29.84,10,10,10,25,15,38,0.00,0,,190
2013-9-10,96,82,68,63,58,54,68,45,30,30.07,29.99,29.92,10,10,10,22,15,30,0.00,1,,188
2013-9-11,93,80,66,66,62,57,88,56,34,30.16,30.10,30.02,10,10,9,17,11,24,0.00,2,,197
2013-9-12,73,71,69,66,65,64,88,84,78,30.22,30.17,30.14,10,8,2,12,6,,0.33,5,,52
2013-9-13,69,66,62,64,54,50,83,66,52,30.20,30.14,30.05,10,10,5,12,7,,0.00,4,,97
2013-9-14,82,70,57,63,56,48,77,64,50,30.05,29.98,29.88,10,10,10,22,10,25,0.00,1,,159
2013-9-15,87,74,62,66,61,57,82,67,43,30.18,29.99,29.92,10,10,7,23,14,28,0.01,4,,150
2013-9-16,62,60,59,57,56,55,88,86,82,30.23,30.19,30.15,10,6,1,16,10,22,0.45,8,,69
2013-9-17,87,74,62,66,63,57,94,73,46,30.15,30.00,29.86,10,7,0,25,12,33,0.34,5,Thunderstorm,170
2013-9-18,95,82,69,66,63,57,83,58,32,29.90,29.81,29.73,10,10,10,34,19,43,0.00,0,,192
2013-9-19,82,73,64,63,60,52,69,60,51,30.08,29.88,29.79,10,10,7,21,16,28,0.00,1,,273
2013-9-20,75,63,51,52,47,45,82,61,34,30.17,30.09,30.02,10,10,2,16,9,23,0.00,0,,15
2013-9-21,84,65,46,52,44,39,82,52,20,30.05,29.97,29.87,10,10,10,18,8,30,0.00,0,,205
2013-9-22,82,70,57,50,47,46,67,48,30,29.90,29.83,29.74,10,10,10,30,15,38,0.00,0,,165
2013-9-23,84,70,57,50,47,46,67,50,27,29.82,29.70,29.59,10,9,2,36,19,47,0.00,2,,189
2013-9-24,78,66,53,52,49,46,77,57,36,29.99,29.92,29.83,10,10,10,25,14,32,0.00,0,,321
2013-9-25,86,67,48,55,49,43,87,57,29,29.94,29.82,29.68,10,10,9,26,9,33,0.00,0,,161
2013-9-26,96,80,64,57,53,50,64,43,23,29.75,29.69,29.64,10,10,10,36,21,44,0.00,0,,166
2013-9-27,91,80,69,64,57,52,83,48,31,29.81,29.77,29.70,10,10,6,30,22,39,0.28,,Thunderstorm,172
2013-9-28,69,60,48,64,46,37,88,64,31,30.13,30.01,29.71,10,10,3,22,13,62,0.69,1,Thunderstorm,324
2013-9-29,78,61,44,46,42,37,82,56,24,30.13,30.03,29.91,10,10,10,16,8,22,0.00,0,,194
2013-9-30,82,64,46,54,48,43,87,58,30,29.91,29.83,29.76,10,10,10,20,9,24,0.00,0,,169